User: anonymous   Login
Location: Aulnoy
(48.8410°N, 3.0967°E)
Time: 19:26:48
(UTC+00:00)
Language:

Cosmos 2360 Rocket - Orbit

View from above orbital plane
View from above orbital plane
View from above satellite
View from above satellite

Ground track
Ground track

The orbit data is extracted from the following two-line orbital elements,

1 25407U 98045B   24151.26750475  .00000359  00000-0  20602-3 0  9993
2 25407  71.0103 105.0196 0009493 288.1202  71.8887 14.16003192335302
Epoch (UTC): 30 May 2024 06:25:12
Eccentricity: 0.0009493
inclination: 71.0103°
perigee height: 832 km
apogee height: 846 km
right ascension of ascending node: 105.0196°
argument of perigee: 288.1202°
revolutions per day: 14.16003192
mean anomaly at epoch: 71.8887°
orbit number at epoch: 33530

The dashed part of the orbit path shows where the satellite is in the earth's shadow,  

DLR